| time (UTC) | temp F | wind direction | speed MPH | gust MPH | rain 1hr in | rain 24hr in | rain mn in | humidity % | barometer mb |
| 20260506233115 | 56 | 135 | 1.0 | 3.0 | 0.00 | 0.00 | 0.00 | 77 | 1021.4 |
| 20260506232115 | 56 | 135 | 1.0 | 2.0 | 0.00 | 0.00 | 0.00 | 77 | 1021.4 |
| 20260506231115 | 56 | 0.0 | 1.0 | 0.00 | 0.00 | 0.00 | 78 | 1021.4 | |
| 20260506230115 | 57 | 0.0 | 1.0 | 0.00 | 0.00 | 0.00 | 79 | 1021.5 | |
| 20260506225115 | 57 | 135 | 1.0 | 2.0 | 0.00 | 0.00 | 0.00 | 78 | 1021.5 |
| 20260506224135 | 56 | 293 | 1.0 | 4.0 | 0.00 | 0.00 | 0.00 | 79 | 1021.6 |
| 20260506223115 | 56 | 0.0 | 1.0 | 0.00 | 0.00 | 0.00 | 80 | 1021.5 | |
| 20260506222117 | 56 | 158 | 2.0 | 3.0 | 0.00 | 0.00 | 0.00 | 80 | 1021.5 |
| 20260506221117 | 56 | 0.0 | 0.0 | 0.00 | 0.00 | 0.00 | 81 | 1021.7 | |
| 20260506220137 | 56 | 135 | 1.0 | 2.0 | 0.00 | 0.00 | 0.00 | 82 | 1021.6 |
| 20260506215137 | 56 | 135 | 1.0 | 2.0 | 0.00 | 0.00 | 0.00 | 81 | 1021.7 |
| 20260506214117 | 56 | 0.0 | 1.0 | 0.00 | 0.00 | 0.00 | 83 | 1021.6 | |
| 20260506213117 | 56 | 90 | 1.0 | 2.0 | 0.00 | 0.00 | 0.00 | 84 | 1021.6 |
| 20260506212157 | 56 | 0.0 | 0.0 | 0.00 | 0.00 | 0.00 | 84 | 1021.7 | |
| 20260506211117 | 56 | 293 | 1.0 | 2.0 | 0.00 | 0.00 | 0.00 | 83 | 1021.6 |
| 20260506210117 | 56 | 0.0 | 1.0 | 0.00 | 0.00 | 0.00 | 85 | 1021.6 | |
| 20260506205117 | 56 | 0.0 | 0.0 | 0.00 | 0.00 | 0.00 | 85 | 1021.6 | |
| 20260506204117 | 56 | 338 | 1.0 | 2.0 | 0.00 | 0.00 | 0.00 | 84 | 1021.5 |
| 20260506203117 | 57 | 338 | 1.0 | 2.0 | 0.00 | 0.00 | 0.00 | 84 | 1021.6 |
| 20260506202137 | 56 | 0.0 | 1.0 | 0.00 | 0.00 | 0.00 | 84 | 1021.5 | |
| 20260506201117 | 56 | 293 | 2.0 | 3.0 | 0.00 | 0.00 | 0.00 | 83 | 1021.6 |
| 20260506200117 | 57 | 0.0 | 1.0 | 0.00 | 0.00 | 0.00 | 82 | 1021.5 | |
| 20260506195138 | 58 | 0.0 | 2.0 | 0.00 | 0.00 | 0.00 | 81 | 1021.4 | |
| 20260506194137 | 57 | 315 | 1.0 | 2.0 | 0.00 | 0.00 | 0.00 | 82 | 1021.3 |
| 20260506193137 | 56 | 0.0 | 0.0 | 0.00 | 0.00 | 0.00 | 84 | 1021.3 | |
| 20260506192117 | 56 | 0.0 | 1.0 | 0.00 | 0.00 | 0.00 | 85 | 1021.4 | |
| 20260506191117 | 56 | 135 | 1.0 | 3.0 | 0.00 | 0.00 | 0.00 | 85 | 1021.2 |
| 20260506190117 | 55 | 0.0 | 1.0 | 0.00 | 0.00 | 0.00 | 85 | 1021.2 | |
| 20260506185117 | 55 | 0.0 | 0.0 | 0.00 | 0.00 | 0.00 | 86 | 1021.3 | |
| 20260506184117 | 55 | 135 | 2.0 | 3.0 | 0.00 | 0.00 | 0.00 | 86 | 1021.1 |
| 20260506183117 | 55 | 135 | 1.0 | 2.0 | 0.00 | 0.00 | 0.00 | 87 | 1021.2 |
| 20260506182117 | 55 | 225 | 1.0 | 1.0 | 0.00 | 0.00 | 0.00 | 87 | 1021.2 |
| 20260506181117 | 55 | 0.0 | 1.0 | 0.00 | 0.00 | 0.00 | 88 | 1020.9 | |
| 20260506180117 | 55 | 315 | 1.0 | 3.0 | 0.00 | 0.00 | 0.00 | 89 | 1021.0 |
| 20260506175117 | 54 | 0.0 | 1.0 | 0.00 | 0.00 | 0.00 | 89 | 1020.8 | |
| 20260506174117 | 55 | 135 | 2.0 | 3.0 | 0.00 | 0.00 | 0.00 | 89 | 1020.8 |
| 20260506173136 | 55 | 0.0 | 1.0 | 0.00 | 0.00 | 0.00 | 90 | 1021.0 | |
| 20260506172116 | 55 | 0.0 | 1.0 | 0.00 | 0.00 | 0.00 | 91 | 1021.1 | |
| 20260506171116 | 54 | 0.0 | 0.0 | 0.00 | 0.00 | 0.00 | 91 | 1021.1 | |
| 20260506170116 | 54 | 315 | 1.0 | 2.0 | 0.00 | 0.00 | 0.00 | 91 | 1021.0 |
| 20260506165116 | 54 | 158 | 1.0 | 2.0 | 0.00 | 0.00 | 0.00 | 92 | 1020.8 |
| 20260506164136 | 54 | 315 | 1.0 | 3.0 | 0.00 | 0.00 | 0.00 | 92 | 1020.8 |
| 20260506163116 | 54 | 135 | 1.0 | 2.0 | 0.00 | 0.00 | 0.00 | 92 | 1020.5 |
| 20260506162116 | 54 | 23 | 1.0 | 2.0 | 0.00 | 0.00 | 0.00 | 93 | 1020.4 |
| 20260506161116 | 54 | 0.0 | 1.0 | 0.00 | 0.00 | 0.00 | 92 | 1020.4 | |
| 20260506160117 | 54 | 0.0 | 1.0 | 0.00 | 0.00 | 0.00 | 92 | 1020.2 | |
| 20260506155116 | 54 | 0.0 | 1.0 | 0.00 | 0.00 | 0.00 | 92 | 1020.2 | |
| 20260506154136 | 54 | 0.0 | 1.0 | 0.00 | 0.00 | 0.00 | 92 | 1020.4 | |
| 20260506153117 | 53 | 0.0 | 0.0 | 0.00 | 0.00 | 0.00 | 91 | 1020.7 | |
| 20260506152137 | 53 | 0.0 | 1.0 | 0.00 | 0.00 | 0.00 | 91 | 1020.6 | |
| 20260506151116 | 53 | 0.0 | 1.0 | 0.00 | 0.00 | 0.00 | 91 | 1020.5 | |
| 20260506150116 | 53 | 0.0 | 0.0 | 0.00 | 0.00 | 0.00 | 91 | 1020.2 | |
| 20260506145116 | 53 | 0.0 | 1.0 | 0.00 | 0.00 | 0.00 | 91 | 1020.3 | |
| 20260506144116 | 53 | 135 | 1.0 | 2.0 | 0.00 | 0.00 | 0.00 | 91 | 1020.4 |
| 20260506143136 | 53 | 0.0 | 0.0 | 0.00 | 0.00 | 0.00 | 91 | 1020.3 | |
| 20260506142136 | 53 | 0.0 | 0.0 | 0.00 | 0.00 | 0.00 | 91 | 1020.3 | |
| 20260506141117 | 53 | 158 | 1.0 | 2.0 | 0.00 | 0.00 | 0.00 | 91 | 1020.2 |
| 20260506140116 | 53 | 0.0 | 1.0 | 0.00 | 0.00 | 0.00 | 91 | 1020.4 | |
| 20260506135116 | 53 | 0.0 | 0.0 | 0.00 | 0.00 | 0.00 | 91 | 1020.4 | |
| 20260506134116 | 53 | 0.0 | 0.0 | 0.00 | 0.00 | 0.00 | 91 | 1020.1 | |
| 20260506133116 | 53 | 0.0 | 0.0 | 0.00 | 0.00 | 0.00 | 90 | 1020.2 | |
| 20260506132117 | 53 | 0.0 | 0.0 | 0.00 | 0.00 | 0.00 | 90 | 1020.0 | |
| 20260506131116 | 53 | 0.0 | 0.0 | 0.00 | 0.00 | 0.00 | 90 | 1019.8 | |
| 20260506130116 | 53 | 0.0 | 0.0 | 0.00 | 0.00 | 0.00 | 90 | 1019.6 | |
| 20260506125116 | 53 | 0.0 | 0.0 | 0.00 | 0.00 | 0.00 | 89 | 1019.7 | |
| 20260506124116 | 53 | 0.0 | 1.0 | 0.00 | 0.00 | 0.00 | 90 | 1019.7 | |
| 20260506123116 | 53 | 0.0 | 1.0 | 0.00 | 0.00 | 0.00 | 90 | 1019.5 | |
| 20260506122116 | 53 | 0.0 | 1.0 | 0.00 | 0.00 | 0.00 | 90 | 1019.5 | |
| 20260506121116 | 53 | 0.0 | 0.0 | 0.00 | 0.00 | 0.00 | 90 | 1019.4 | |
| 20260506120116 | 53 | 0.0 | 1.0 | 0.00 | 0.00 | 0.00 | 90 | 1019.5 | |
| 20260506115116 | 53 | 0.0 | 0.0 | 0.00 | 0.00 | 0.00 | 90 | 1019.5 | |
| 20260506114116 | 53 | 0.0 | 0.0 | 0.00 | 0.00 | 0.00 | 90 | 1019.4 | |
| 20260506113116 | 53 | 0.0 | 0.0 | 0.00 | 0.00 | 0.00 | 90 | 1019.4 | |
| 20260506112116 | 53 | 0.0 | 0.0 | 0.00 | 0.00 | 0.00 | 90 | 1019.2 | |
| 20260506111116 | 53 | 0.0 | 1.0 | 0.00 | 0.00 | 0.00 | 90 | 1019.2 | |
| 20260506110136 | 53 | 0.0 | 1.0 | 0.00 | 0.00 | 0.00 | 90 | 1019.1 | |
| 20260506105116 | 53 | 0.0 | 1.0 | 0.00 | 0.00 | 0.00 | 90 | 1019.0 | |
| 20260506104116 | 53 | 0.0 | 1.0 | 0.00 | 0.00 | 0.00 | 91 | 1019.0 | |
| 20260506103116 | 53 | 0.0 | 0.0 | 0.00 | 0.00 | 0.00 | 91 | 1018.8 | |
| 20260506102136 | 53 | 0.0 | 0.0 | 0.00 | 0.00 | 0.00 | 91 | 1018.7 | |
| 20260506101116 | 53 | 0.0 | 0.0 | 0.00 | 0.00 | 0.00 | 92 | 1018.7 | |
| 20260506100116 | 53 | 0.0 | 0.0 | 0.00 | 0.00 | 0.00 | 92 | 1018.5 | |
| 20260506095116 | 53 | 0.0 | 0.0 | 0.00 | 0.00 | 0.00 | 93 | 1018.3 | |
| 20260506094116 | 53 | 0.0 | 0.0 | 0.00 | 0.00 | 0.00 | 93 | 1018.5 | |
| 20260506093116 | 53 | 0.0 | 1.0 | 0.00 | 0.00 | 0.00 | 93 | 1018.4 | |
| 20260506092116 | 53 | 0.0 | 0.0 | 0.00 | 0.00 | 0.00 | 93 | 1018.3 | |
| 20260506091116 | 53 | 0.0 | 0.0 | 0.00 | 0.00 | 0.00 | 93 | 1018.2 | |
| 20260506090115 | 53 | 0.0 | 0.0 | 0.00 | 0.00 | 0.00 | 92 | 1018.3 | |
| 20260506085116 | 53 | 0.0 | 0.0 | 0.00 | 0.00 | 0.00 | 92 | 1018.2 | |
| 20260506084116 | 53 | 0.0 | 0.0 | 0.00 | 0.00 | 0.00 | 92 | 1018.1 | |
| 20260506083115 | 53 | 0.0 | 0.0 | 0.00 | 0.00 | 0.00 | 92 | 1017.9 | |
| 20260506082115 | 53 | 0.0 | 0.0 | 0.00 | 0.00 | 0.00 | 92 | 1017.9 | |
| 20260506081115 | 53 | 0.0 | 0.0 | 0.00 | 0.00 | 0.00 | 91 | 1017.9 | |
| 20260506080116 | 54 | 0.0 | 0.0 | 0.00 | 0.00 | 0.00 | 91 | 1017.8 | |
| 20260506073136 | 54 | 0.0 | 0.0 | 0.00 | 0.00 | 0.00 | 90 | 1017.7 | |
| 20260506072115 | 54 | 0.0 | 0.0 | 0.00 | 0.00 | 0.00 | 90 | 1017.7 | |
| 20260506071135 | 54 | 0.0 | 0.0 | 0.00 | 0.00 | 0.00 | 89 | 1017.6 | |
| 20260506070115 | 55 | 0.0 | 0.0 | 0.00 | 0.00 | 0.00 | 89 | 1017.7 | |
| 20260506062116 | 55 | 0.0 | 0.0 | 0.00 | 0.00 | 0.00 | 88 | 1017.2 | |
| 20260506061116 | 56 | 0.0 | 0.0 | 0.00 | 0.00 | 0.00 | 88 | 1017.1 | |
| 20260506060116 | 56 | 0.0 | 0.0 | 0.00 | 0.00 | 0.00 | 87 | 1016.9 | |
| 20260506051136 | 56 | 0.0 | 0.0 | 0.00 | 0.00 | 0.00 | 86 | 1016.4 | |
| 20260506050116 | 56 | 0.0 | 0.0 | 0.00 | 0.00 | 0.00 | 85 | 1016.4 | |
| 20260506045116 | 57 | 0.0 | 0.0 | 0.00 | 0.00 | 0.00 | 85 | 1016.4 | |
| 20260506044116 | 57 | 0.0 | 0.0 | 0.00 | 0.00 | 0.00 | 85 | 1016.2 | |
| 20260506043116 | 57 | 0.0 | 0.0 | 0.00 | 0.00 | 0.00 | 84 | 1016.1 | |
| 20260506042116 | 57 | 0.0 | 0.0 | 0.00 | 0.00 | 0.00 | 84 | 1016.1 | |
| 20260506041136 | 57 | 0.0 | 0.0 | 0.00 | 0.00 | 0.00 | 84 | 1016.1 | |
| 20260506040116 | 58 | 0.0 | 0.0 | 0.00 | 0.00 | 0.00 | 83 | 1016.2 | |
| 20260506035136 | 58 | 0.0 | 0.0 | 0.00 | 0.00 | 0.00 | 83 | 1016.2 | |
| 20260506034116 | 58 | 0.0 | 0.0 | 0.00 | 0.00 | 0.00 | 83 | 1016.0 | |
| 20260506033116 | 59 | 0.0 | 0.0 | 0.00 | 0.00 | 0.00 | 82 | 1015.9 | |
| 20260506032116 | 59 | 0.0 | 0.0 | 0.00 | 0.00 | 0.00 | 81 | 1015.9 | |
| 20260506031116 | 60 | 0.0 | 0.0 | 0.00 | 0.00 | 0.00 | 80 | 1015.8 | |
| 20260506030116 | 60 | 0.0 | 0.0 | 0.00 | 0.00 | 0.00 | 79 | 1015.8 | |
| 20260506025136 | 61 | 0.0 | 0.0 | 0.00 | 0.00 | 0.00 | 79 | 1015.8 | |
| 20260506024116 | 61 | 0.0 | 0.0 | 0.00 | 0.00 | 0.00 | 78 | 1015.8 | |
| 20260506023115 | 62 | 0.0 | 0.0 | 0.00 | 0.00 | 0.00 | 76 | 1015.8 | |
| 20260506022116 | 62 | 0.0 | 0.0 | 0.00 | 0.00 | 0.00 | 75 | 1015.7 | |
| 20260506021115 | 63 | 0.0 | 0.0 | 0.00 | 0.00 | 0.00 | 75 | 1015.7 | |
| 20260506020116 | 63 | 0.0 | 0.0 | 0.00 | 0.00 | 0.00 | 74 | 1015.7 | |
| 20260506015116 | 63 | 0.0 | 0.0 | 0.00 | 0.00 | 0.00 | 74 | 1015.7 | |
| 20260506014116 | 63 | 0.0 | 1.0 | 0.00 | 0.00 | 0.00 | 74 | 1015.7 | |
| 20260506013116 | 63 | 0.0 | 1.0 | 0.00 | 0.00 | 0.00 | 73 | 1015.7 | |
| 20260506012135 | 63 | 0.0 | 2.0 | 0.00 | 0.00 | 0.00 | 73 | 1015.7 | |
| 20260506011136 | 63 | 113 | 1.0 | 2.0 | 0.00 | 0.00 | 0.00 | 74 | 1015.7 |
| 20260506010116 | 62 | 0.0 | 1.0 | 0.00 | 0.00 | 0.00 | 74 | 1015.7 | |
| 20260506005116 | 62 | 0.0 | 0.0 | 0.00 | 0.00 | 0.00 | 76 | 1015.7 | |
| 20260506004116 | 62 | 158 | 2.0 | 3.0 | 0.00 | 0.00 | 0.00 | 76 | 1015.8 |
| 20260506003116 | 62 | 158 | 1.0 | 1.0 | 0.00 | 0.00 | 0.00 | 76 | 1015.8 |
| 20260506002136 | 62 | 0.0 | 1.0 | 0.00 | 0.00 | 0.00 | 74 | 1015.8 | |
| 20260506001116 | 62 | 0.0 | 1.0 | 0.00 | 0.00 | 0.00 | 74 | 1015.9 | |
| 20260506000115 | 62 | 0.0 | 1.0 | 0.00 | 0.00 | 0.00 | 73 | 1016.0 | |
| 20260505235115 | 63 | 0.0 | 1.0 | 0.00 | 0.00 | 0.00 | 73 | 1016.1 | |
| 20260505234135 | 63 | 0.0 | 1.0 | 0.00 | 0.00 | 0.00 | 71 | 1016.1 |